Newport, VT

3:08 PM EDT on September 18, 2019 (GMT -0400)
Newport State

Weather History for KEFK - August, 2019

Change the Weather History Date:

Sunday, August 18, 2019

  Actual Average Record
Temperature  
Mean Temperature 70 °F -  
Max Temperature 80 °F 76 °F 91 °F (1935)
Min Temperature 60 °F 54 °F 40 °F (1957)
Cooling Degree Days 5    
Growing Degree Days 20 (Base 50)    
Moisture  
Dew Point 65 °F    
Average Humidity 85    
Maximum Humidity 100    
Minimum Humidity 61    
Precipitation  
Precipitation 0.00 in - - ()
Sea Level Pressure  
Sea Level Pressure 30.00 in    
Wind  
Wind Speed 4 mph ()    
Max Wind Speed 8 mph    
Max Gust Speed -    
Visibility 9.8 miles    
Events      
Averages and records for this station are not official NWS values.
T = Trace of Precipitation, MM = Missing Value Source: Averaged Metar Reports

Daily Weather History Graph

Daily Weather History Graph

Search for Another Location

Airport or City:

Astronomy

Aug. 18, 2019 Rise Set
Actual Time 5:54 AM EDT 7:50 PM EDT
Civil Twilight 5:22 AM EDT 8:22 PM EDT
Nautical Twilight 4:43 AM EDT 9:00 PM EDT
Astronomical Twilight 4:01 AM EDT 9:42 PM EDT
Moon 9:37 PM EDT 8:41 AM EDT
Length of Visible Light 14h 59m
Length of Day
13h 56m
Waning Gibbous, 91% of the Moon is Illuminated
Aug 18
Waning Gibbous
Aug 23
Last Quarter
Aug 30
New
Sep 5
First Quarter
Sep 14
Full

Hourly Weather History & Observations

Time (EDT) Temp. Heat Index Dew Point Humidity Pressure Visibility Wind Dir Wind Speed Gust Speed Precip Events Conditions
12:18 AM 64.4 °F - 64.4 °F 100% 30.00 in 10.0 mi SSE 5.8 mph - N/A   Clear
12:36 AM 64.4 °F - 64.4 °F 100% 29.99 in 10.0 mi South 4.6 mph - N/A   Clear
1:16 AM 63.7 °F - 63.7 °F 100% 30.00 in 10.0 mi South 4.6 mph - N/A   Mostly Cloudy
1:35 AM 63.9 °F - 63.7 °F 99% 30.00 in 10.0 mi South 4.6 mph - N/A   Overcast
1:56 AM 63.0 °F - 63.0 °F 100% 30.01 in 10.0 mi South 5.8 mph - N/A   Mostly Cloudy
2:18 AM 63.1 °F - 63.1 °F 100% 30.01 in 10.0 mi South 6.9 mph - N/A   Mostly Cloudy
2:36 AM 63.0 °F - 63.0 °F 100% 30.00 in 10.0 mi South 5.8 mph - N/A   Scattered Clouds
2:55 AM 63.0 °F - 63.0 °F 100% 30.00 in 10.0 mi South 5.8 mph - N/A   Clear
2:59 AM 62.8 °F - 62.8 °F 100% 30.00 in 10.0 mi South 6.9 mph - N/A   Clear
3:16 AM 63.0 °F - 63.0 °F 100% 30.00 in 10.0 mi South 4.6 mph - N/A   Scattered Clouds
3:39 AM 62.8 °F - 62.8 °F 100% 30.01 in 10.0 mi Calm Calm - N/A   Mostly Cloudy
3:56 AM 62.8 °F - 62.8 °F 100% 30.01 in 10.0 mi SE 3.5 mph - N/A   Overcast
4:15 AM 62.1 °F - 62.1 °F 100% 30.01 in 10.0 mi South 3.5 mph - N/A   Scattered Clouds
4:36 AM 62.6 °F - 62.6 °F 100% 30.01 in 10.0 mi South 3.5 mph - N/A   Mostly Cloudy
4:55 AM 62.6 °F - 62.6 °F 100% 30.01 in 10.0 mi Calm Calm - N/A   Mostly Cloudy
4:59 AM 62.6 °F - 62.6 °F 100% 30.01 in 10.0 mi Calm Calm - N/A   Mostly Cloudy
5:16 AM 61.9 °F - 61.9 °F 100% 30.02 in 10.0 mi South 4.6 mph - N/A   Mostly Cloudy
5:39 AM 61.9 °F - 61.9 °F 100% 30.02 in 10.0 mi South 3.5 mph - N/A   Scattered Clouds
5:55 AM 60.4 °F - 60.4 °F 100% 30.01 in 3.0 mi ENE 3.5 mph - N/A   Scattered Clouds
6:15 AM 60.6 °F - 60.6 °F 100% 30.02 in 5.0 mi Calm Calm - N/A   Mostly Cloudy
6:19 AM 61.2 °F - 61.2 °F 100% 30.01 in 7.0 mi SSE 3.5 mph - N/A   Mostly Cloudy
6:36 AM 62.4 °F - 62.4 °F 100% 30.02 in 10.0 mi Calm Calm - N/A   Overcast
6:58 AM 63.1 °F - 63.1 °F 100% 30.02 in 10.0 mi South 3.5 mph - N/A   Overcast
7:15 AM 63.7 °F - 63.7 °F 100% 30.02 in 10.0 mi Calm Calm - N/A   Overcast
7:38 AM 64.0 °F - 64.0 °F 100% 30.03 in 10.0 mi SSW 4.6 mph - N/A   Overcast
7:56 AM 64.4 °F - 64.4 °F 100% 30.04 in 10.0 mi SSW 4.6 mph - N/A   Mostly Cloudy
8:18 AM 65.7 °F - 65.1 °F 98% 30.05 in 10.0 mi SW 3.5 mph - N/A   Scattered Clouds
8:35 AM 67.1 °F - 65.5 °F 95% 30.04 in 10.0 mi SSW 4.6 mph - N/A   Mostly Cloudy
8:36 AM 66.9 °F - 65.5 °F 95% 30.05 in 10.0 mi SSW 5.8 mph - N/A   Mostly Cloudy
8:58 AM 65.8 °F - 64.8 °F 96% 30.04 in 10.0 mi SSW 8.1 mph - N/A   Overcast
9:16 AM 66.4 °F - 65.3 °F 96% 30.05 in 10.0 mi South 3.5 mph - N/A   Overcast
9:38 AM 67.3 °F - 65.5 °F 94% 30.05 in 10.0 mi SSW 4.6 mph - N/A   Overcast
9:55 AM 68.9 °F - 66.0 °F 90% 30.05 in 10.0 mi South 6.9 mph - N/A   Mostly Cloudy
10:18 AM 70.7 °F - 65.7 °F 84% 30.05 in 10.0 mi SSW 4.6 mph - N/A   Scattered Clouds
10:36 AM 71.6 °F - 66.2 °F 83% 30.04 in 10.0 mi East 3.5 mph - N/A   Scattered Clouds
10:58 AM 73.0 °F - 66.2 °F 79% 30.04 in 10.0 mi ESE 3.5 mph - N/A   Mostly Cloudy
11:15 AM 73.8 °F - 66.7 °F 79% 30.04 in 10.0 mi SSW 4.6 mph - N/A   Mostly Cloudy
11:38 AM 74.3 °F - 66.0 °F 75% 30.03 in 10.0 mi SSE 3.5 mph - N/A   Scattered Clouds
11:56 AM 74.5 °F - 65.1 °F 72% 30.03 in 10.0 mi SSW 6.9 mph - N/A   Mostly Cloudy
12:18 PM 73.8 °F - 65.7 °F 76% 30.02 in 10.0 mi WSW 5.8 mph - N/A   Overcast
12:35 PM 75.6 °F - 64.6 °F 69% 30.02 in 10.0 mi South 6.9 mph - N/A   Mostly Cloudy
12:36 PM 75.6 °F - 64.2 °F 68% 30.01 in 10.0 mi SSW 8.1 mph - N/A   Scattered Clouds
12:58 PM 76.6 °F - 64.6 °F 66% 30.01 in 10.0 mi SSW 3.5 mph - N/A   Scattered Clouds
1:16 PM 75.2 °F - 64.4 °F 69% 30.01 in 10.0 mi SW 3.5 mph - N/A   Scattered Clouds
1:38 PM 76.8 °F - 66.2 °F 70% 30.01 in 10.0 mi Calm Calm - N/A   Scattered Clouds
1:55 PM 77.7 °F - 64.6 °F 64% 30.02 in 10.0 mi ESE 3.5 mph - N/A   Scattered Clouds
2:18 PM 78.3 °F - 64.9 °F 63% 30.01 in 10.0 mi Calm Calm - N/A   Scattered Clouds
2:36 PM 77.9 °F - 63.7 °F 61% 30.01 in 10.0 mi South 3.5 mph - N/A   Scattered Clouds
2:59 PM 80.1 °F 82.0 °F 65.7 °F 61% 30.01 in 10.0 mi South 5.8 mph - N/A   Mostly Cloudy
3:15 PM 77.9 °F - 64.6 °F 63% 30.01 in 10.0 mi SSW 6.9 mph - N/A   Scattered Clouds
3:38 PM 79.2 °F - 65.8 °F 64% 30.00 in 10.0 mi SSW 8.1 mph - N/A   Clear
3:56 PM 79.9 °F - 65.8 °F 62% 29.99 in 10.0 mi SW 8.1 mph - N/A   Clear
4:15 PM 78.6 °F - 65.7 °F 64% 29.99 in 10.0 mi SSW 3.5 mph - N/A   Clear
4:19 PM 78.8 °F - 65.8 °F 64% 30.00 in 10.0 mi SSW 6.9 mph - N/A   Clear
4:35 PM 79.2 °F - 64.9 °F 62% 29.99 in 10.0 mi South 4.6 mph - N/A   Clear
4:36 PM 79.0 °F - 65.3 °F 63% 29.98 in 10.0 mi South 4.6 mph - N/A   Clear
4:58 PM 78.4 °F - 65.7 °F 65% 29.98 in 10.0 mi South 3.5 mph - N/A   Clear
5:16 PM 79.0 °F - 64.8 °F 62% 29.99 in 10.0 mi SSE 3.5 mph - N/A   Clear
5:39 PM 77.9 °F - 65.3 °F 65% 29.99 in 10.0 mi South 3.5 mph - N/A   Clear
5:55 PM 77.9 °F - 67.1 °F 69% 29.98 in 10.0 mi SSE 3.5 mph - N/A   Clear
5:56 PM 77.5 °F - 66.7 °F 69% 29.98 in 10.0 mi SSE 3.5 mph - N/A   Clear
6:18 PM 75.2 °F - 65.7 °F 72% 29.98 in 10.0 mi Calm Calm - N/A   Clear
6:36 PM 75.6 °F - 66.0 °F 72% 29.98 in 10.0 mi Calm Calm - N/A   Clear
6:59 PM 74.7 °F - 66.9 °F 77% 29.98 in 10.0 mi Calm Calm - N/A   Mostly Cloudy
7:15 PM 73.4 °F - 67.5 °F 82% 29.97 in 10.0 mi SSE 3.5 mph - N/A   Mostly Cloudy
7:16 PM 73.4 °F - 66.9 °F 80% 29.97 in 10.0 mi South 3.5 mph - N/A   Mostly Cloudy
7:38 PM 72.7 °F - 66.2 °F 80% 29.97 in 10.0 mi Calm Calm - N/A   Clear
7:56 PM 71.8 °F - 66.2 °F 83% 29.97 in 10.0 mi SSE 3.5 mph - N/A   Clear
8:19 PM 69.6 °F - 66.2 °F 89% 29.96 in 10.0 mi Calm Calm - N/A   Clear
8:35 PM 70.0 °F - 66.6 °F 89% 29.97 in 10.0 mi SW 3.5 mph - N/A   Clear
8:36 PM 70.2 °F - 66.6 °F 88% 29.97 in 10.0 mi SW 3.5 mph - N/A   Clear
8:58 PM 71.1 °F - 66.4 °F 85% 29.97 in 10.0 mi Calm Calm - N/A   Clear
9:16 PM 69.3 °F - 66.6 °F 91% 29.97 in 10.0 mi Calm Calm - N/A   Clear
9:35 PM 68.0 °F - 66.4 °F 95% 29.96 in 10.0 mi Calm Calm - N/A   Scattered Clouds
9:39 PM 68.2 °F - 66.6 °F 95% 29.96 in 10.0 mi Calm Calm - N/A   Scattered Clouds
9:56 PM 69.8 °F - 66.4 °F 89% 29.96 in 10.0 mi Calm Calm - N/A   Mostly Cloudy
10:18 PM 69.3 °F - 66.2 °F 90% 29.96 in 10.0 mi South 3.5 mph - N/A   Mostly Cloudy
10:36 PM 67.3 °F - 66.2 °F 96% 29.96 in 10.0 mi Calm Calm - N/A   Mostly Cloudy
10:55 PM 68.0 °F - 66.4 °F 95% 29.95 in 10.0 mi SSW 3.5 mph - N/A   Mostly Cloudy
11:15 PM 68.2 °F - 66.0 °F 93% 29.94 in 10.0 mi Calm Calm - N/A   Scattered Clouds
11:16 PM 68.2 °F - 66.0 °F 93% 29.94 in 10.0 mi Calm Calm - N/A   Scattered Clouds
11:38 PM 68.0 °F - 66.2 °F 94% 29.93 in 10.0 mi Calm Calm - N/A   Mostly Cloudy
11:56 PM 68.2 °F - 66.0 °F 93% 29.93 in 10.0 mi Calm Calm - N/A   Overcast